Palacios, TX

10:01 AM CDT on March 24, 2017 (GMT -0500)
Palacios Municipal

Weather History for KPSX - February, 2014

Change the Weather History Date:

Tuesday, February 25, 2014

  Actual Average Record
Temperature  
Mean Temperature 68 °F -  
Max Temperature 73 °F 68 °F 81 °F (2011)
Min Temperature 63 °F 49 °F 26 °F (1974)
Cooling Degree Days 3    
Growing Degree Days 18 (Base 50)    
Moisture  
Dew Point 66 °F    
Average Humidity 93    
Maximum Humidity 100    
Minimum Humidity 79    
Precipitation  
Precipitation 0.43 in - - ()
Sea Level Pressure  
Sea Level Pressure 29.96 in    
Wind  
Wind Speed 9 mph (ESE)    
Max Wind Speed 16 mph    
Max Gust Speed -    
Visibility 4 miles    
Events Fog , Rain    
Averages and records for this station are not official NWS values.
T = Trace of Precipitation, MM = Missing Value Source: NWS Daily Summary

Daily Weather History Graph

Daily Weather History Graph

Search for Another Location

Airport or City:

Trip Planner

Search our weather history database for the weather conditions in past years. The results will help you decide how hot, cold, wet, or windy it might be!

Date:

Astronomy

Feb. 25, 2014 Rise Set
Actual Time 6:54 AM CST 6:22 PM CST
Civil Twilight 6:30 AM CST 6:46 PM CST
Nautical Twilight 6:02 AM CST 7:13 PM CST
Astronomical Twilight 5:35 AM CST 7:41 PM CST
Moon 3:36 AM CST (2/25) 2:41 PM CST (2/25)
Length of Visible Light 12h 15m
Length of Day
11h 28m
Waning Crescent, 18% of the Moon is Illuminated
Feb 25
Waning Crescent
Mar 1
New
Mar 8
First Quarter
Mar 16
Full
Mar 23
Last Quarter

Hourly Weather History & Observations

Time (CST) Temp. Dew Point Humidity Pressure Visibility Wind Dir Wind Speed Gust Speed Precip Events Conditions
12:53 AM 63.0 °F 63.0 °F 100% 30.01 in 0.5 mi East 10.4 mph - N/A Fog Fog
1:53 AM 63.0 °F 62.1 °F 97% 30.00 in 0.2 mi East 6.9 mph - N/A Fog Fog
2:53 AM 63.0 °F 63.0 °F 100% 29.99 in 0.2 mi East 5.8 mph - N/A Fog Fog
3:53 AM 63.0 °F 63.0 °F 100% 29.98 in 0.2 mi East 5.8 mph - N/A Fog Fog
4:53 AM 64.0 °F 63.0 °F 96% 29.97 in 0.2 mi ENE 6.9 mph - N/A Fog Fog
5:53 AM 64.0 °F 64.0 °F 100% 29.99 in 0.2 mi ENE 5.8 mph - N/A Fog Fog
6:53 AM 64.0 °F 64.0 °F 100% 30.00 in 0.5 mi ENE 6.9 mph - N/A Fog Fog
7:53 AM 64.9 °F 64.9 °F 100% 30.01 in 0.5 mi East 8.1 mph - N/A Fog Fog
8:05 AM 64.9 °F 64.9 °F 100% 30.02 in 1.8 mi East 10.4 mph - N/A   Overcast
8:25 AM 66.0 °F 64.9 °F 96% 30.02 in 3.0 mi East 9.2 mph - N/A   Overcast
8:33 AM 66.0 °F 66.0 °F 100% 30.02 in 2.0 mi East 8.1 mph - N/A   Overcast
8:44 AM 66.0 °F 66.0 °F 100% 30.02 in 1.8 mi East 9.2 mph - N/A   Overcast
8:53 AM 66.9 °F 66.0 °F 97% 30.03 in 2.5 mi East 8.1 mph - N/A   Overcast
9:00 AM 66.9 °F 66.0 °F 97% 30.03 in 3.0 mi East 9.2 mph - N/A   Overcast
9:53 AM 69.1 °F 66.9 °F 93% 30.03 in 7.0 mi East 10.4 mph - N/A   Overcast
10:21 AM 70.0 °F 66.9 °F 90% 30.03 in 7.0 mi East 11.5 mph - N/A   Overcast
11:53 AM 71.1 °F 66.9 °F 87% 30.02 in 10.0 mi ESE 13.8 mph - N/A   Overcast
12:30 PM 73.9 °F 66.9 °F 79% 29.99 in 10.0 mi ESE 11.5 mph - N/A   Mostly Cloudy
12:37 PM 73.0 °F 66.9 °F 81% 29.99 in 10.0 mi ESE 13.8 mph - N/A   Overcast
12:53 PM 72.0 °F 66.0 °F 81% 29.99 in 10.0 mi SE 13.8 mph - N/A   Overcast
1:05 PM 72.0 °F 66.0 °F 81% 29.98 in 10.0 mi SE 11.5 mph - N/A   Overcast
1:53 PM 73.0 °F 68.0 °F 84% 29.95 in 10.0 mi ESE 11.5 mph - N/A   Overcast
2:36 PM 73.9 °F 68.0 °F 82% 29.93 in 10.0 mi SE 13.8 mph - N/A   Overcast
2:53 PM 73.9 °F 66.9 °F 79% 29.92 in 10.0 mi SE 15.0 mph - N/A   Mostly Cloudy
3:32 PM 73.0 °F 66.9 °F 81% 29.91 in 10.0 mi ESE 16.1 mph - N/A   Overcast
3:53 PM 73.0 °F 66.9 °F 81% 29.91 in 10.0 mi ESE 15.0 mph - N/A   Overcast
4:05 PM 72.0 °F 66.9 °F 84% 29.90 in 10.0 mi SE 12.7 mph - N/A   Overcast
4:48 PM 69.8 °F 68.0 °F 94% 29.90 in 2.5 mi ESE 13.8 mph - 0.07 in Rain Heavy Rain
4:53 PM 69.1 °F 68.0 °F 96% 29.90 in 2.0 mi ESE 11.5 mph - 0.09 in Rain Heavy Rain
5:10 PM 70.0 °F 68.0 °F 93% 29.90 in 0.8 mi ESE 11.5 mph - 0.27 in Rain Heavy Rain
5:20 PM 70.0 °F 68.0 °F 93% 29.89 in 2.0 mi ESE 9.2 mph - 0.31 in Rain Light Rain
5:27 PM 70.0 °F 68.0 °F 93% 29.89 in 4.0 mi ESE 8.1 mph - 0.33 in Rain Rain
5:53 PM 69.1 °F 68.0 °F 96% 29.90 in 9.0 mi SE 9.2 mph - 0.34 in   Overcast
6:28 PM 68.0 °F 66.9 °F 96% 29.90 in 1.8 mi SE 11.5 mph - N/A   Overcast
6:53 PM 68.0 °F 66.9 °F 96% 29.91 in 0.5 mi SSE 11.5 mph - N/A Fog Fog
7:53 PM 66.9 °F 66.9 °F 100% 29.91 in 0.5 mi SSE 8.1 mph - N/A Fog Fog
8:53 PM 66.9 °F 66.9 °F 100% 29.93 in 0.2 mi South 5.8 mph - N/A Fog Fog
9:53 PM 66.0 °F 64.9 °F 96% 29.93 in 0.8 mi South 5.8 mph - N/A   Mist
10:03 PM 66.0 °F 66.0 °F 100% 29.93 in 1.2 mi South 4.6 mph - N/A   Overcast
10:40 PM 66.0 °F 66.0 °F 100% 29.93 in 3.0 mi South 4.6 mph - N/A   Overcast
10:53 PM 66.0 °F 66.0 °F 100% 29.93 in 3.0 mi South 4.6 mph - N/A   Overcast
11:19 PM 66.0 °F 64.9 °F 96% 29.93 in 1.8 mi West 3.5 mph - N/A   Overcast
11:53 PM 66.0 °F 66.0 °F 100% 29.93 in 1.0 mi WNW 3.5 mph - N/A   Mist